星链-6331 (STARLINK-6331 )

导读 | 星芒AI

STARLINK-6331 是 SpaceX 星链计划中的一颗低轨通信卫星,属于第 63 批发射的星链卫星群。该卫星旨在为全球用户提供高速互联网服务,尤其关注网络覆盖不足的地区。它运行在约 550 公里的近地轨道,采用先进的通信技术,支持高带宽、低延迟的数据传输。星链项目通过大规模部署此类卫星,构建全球性宽带网络,推动互联网普及。STARLINK-6331 的成功运行有助于提升星链系统的整体性能和可靠性。

基本信息
目录编号:
57351
目录名称:
STARLINK-6331
国际标识:
2023-099Z
轨道中心:
EARTH
卫星名称:
星链-6331
卫星全名:
星链-6331 (STARLINK-6331 )
卫星状态:
在轨 (已飞行889 天)
发射日期:
2023-07-16 UTC
国别 :
美国 (US)
星等 :
--
轨道信息
数据来源 国际轨道数据
星历时间: 2025-12-21T14:07:44+0800
13小时前
查看轨道信息
半长轴: 6937.202km
偏心率: 0.0001363
轨道倾角: 43.006°
近地点辐角 262.152°
升交点赤经 314.681°
平近点角 97.917°
近地点: 558.119km
远地点: 560.011km
周期: 95.838分钟
每日圈数: 15.025409
详细信息
固有亮度:
5
最大亮度:
2.5
卫星平台:
Starlink v1.5
覆盖范围:
全球
运营商:
太空探索技术公司
运营商所在国:
美国
制造商(研发单位):
太空探索技术公司
制造商所在国:
美国
使用方式:
暂无
卫星简介
星链(Starlink)计划是由太空探索技术公司(SpaceX)提出的一个巨型低轨卫星互联网星座项目,计划在2019年至2024年间在太空搭建由约1.2万颗卫星组成的“星链”网络,其中1584颗将部署在地球上空550千米处的近地轨道,并从2020年开始工作。该卫星仍在工作。
2D轨道图
3D轨道图
轨道高度分析图
轨道倾角分析图
轨道综合分析图
查看轨道综合分析图